| time (UTC) | temp F | wind direction | speed knots | gust knots | rain 1hr in | rain 24hr in | rain mn in | humidity % | barometer mb |
| 20260505024551 | 62 | 155 | 7.8 | 9.6 | 0.00 | 0.00 | 0.00 | 63 | 1026.1 |
| 20260505023603 | 62 | 146 | 6.1 | 11.3 | 0.00 | 0.00 | 0.00 | 62 | 1026.2 |
| 20260505022551 | 62 | 153 | 7.8 | 11.3 | 0.00 | 0.00 | 0.00 | 63 | 1026.4 |
| 20260505021551 | 63 | 175 | 8.7 | 11.3 | 0.00 | 0.00 | 0.00 | 63 | 1026.3 |
| 20260505020525 | 63 | 166 | 7.8 | 10.4 | 0.00 | 0.00 | 0.00 | 64 | 1026.3 |
| 20260505015611 | 63 | 178 | 7.0 | 10.4 | 0.00 | 0.00 | 0.00 | 62 | 1026.4 |
| 20260505014535 | 63 | 223 | 7.8 | 10.4 | 0.00 | 0.00 | 0.00 | 62 | 1026.4 |
| 20260505013611 | 62 | 209 | 7.0 | 10.4 | 0.00 | 0.00 | 0.00 | 61 | 1026.5 |
| 20260505012551 | 62 | 212 | 5.2 | 8.7 | 0.00 | 0.00 | 0.00 | 64 | 1026.4 |
| 20260505011612 | 62 | 237 | 7.0 | 10.4 | 0.00 | 0.00 | 0.00 | 65 | 1026.4 |
| 20260505010611 | 62 | 265 | 7.0 | 10.4 | 0.00 | 0.00 | 0.00 | 66 | 1026.4 |
| 20260505005525 | 61 | 234 | 5.2 | 8.7 | 0.00 | 0.02 | 0.00 | 66 | 1026.3 |
| 20260505004551 | 61 | 210 | 6.1 | 11.3 | 0.00 | 0.02 | 0.00 | 69 | 1026.3 |
| 20260505003535 | 61 | 196 | 8.7 | 10.4 | 0.00 | 0.02 | 0.00 | 68 | 1026.2 |
| 20260505002551 | 60 | 189 | 7.0 | 9.6 | 0.00 | 0.02 | 0.00 | 70 | 1026.3 |
| 20260505001551 | 60 | 203 | 10.4 | 13.0 | 0.00 | 0.03 | 0.00 | 71 | 1026.2 |
| 20260505000551 | 60 | 194 | 9.6 | 11.3 | 0.00 | 0.03 | 0.00 | 73 | 1026.2 |
| 20260504235551 | 59 | 186 | 8.7 | 10.4 | 0.00 | 0.03 | 0.00 | 76 | 1026.2 |
| 20260504234525 | 59 | 180 | 7.0 | 9.6 | 0.00 | 0.03 | 0.00 | 79 | 1026.2 |
| 20260504233611 | 59 | 185 | 6.1 | 7.8 | 0.00 | 0.03 | 0.00 | 81 | 1026.2 |
| 20260504232535 | 59 | 198 | 6.1 | 10.4 | 0.00 | 0.03 | 0.00 | 82 | 1026.0 |
| 20260504231551 | 59 | 202 | 5.2 | 7.8 | 0.00 | 0.03 | 0.00 | 81 | 1025.9 |
| 20260504230551 | 58 | 180 | 4.3 | 7.0 | 0.00 | 0.06 | 0.00 | 83 | 1025.8 |
| 20260504225551 | 58 | 180 | 7.0 | 11.3 | 0.00 | 0.11 | 0.00 | 83 | 1025.7 |
| 20260504224551 | 58 | 195 | 6.1 | 8.7 | 0.00 | 0.13 | 0.00 | 84 | 1025.6 |
| 20260504223606 | 57 | 202 | 6.1 | 8.7 | 0.00 | 0.13 | 0.00 | 87 | 1025.6 |
| 20260504222551 | 55 | 200 | 6.1 | 9.6 | 0.00 | 0.13 | 0.00 | 90 | 1025.5 |
| 20260504221535 | 54 | 228 | 4.3 | 6.1 | 0.00 | 0.24 | 0.00 | 92 | 1025.4 |
| 20260504220551 | 54 | 241 | 3.5 | 7.0 | 0.00 | 0.30 | 0.00 | 93 | 1025.4 |
| 20260504215551 | 54 | 225 | 2.6 | 7.0 | 0.00 | 0.30 | 0.00 | 93 | 1025.2 |
| 20260504214551 | 54 | 225 | 4.3 | 5.2 | 0.00 | 0.30 | 0.00 | 93 | 1025.1 |
| 20260504213551 | 54 | 225 | 6.1 | 8.7 | 0.00 | 0.30 | 0.00 | 94 | 1025.0 |
| 20260504212525 | 54 | 248 | 5.2 | 7.0 | 0.00 | 0.30 | 0.00 | 94 | 1024.9 |
| 20260504211551 | 53 | 225 | 5.2 | 7.8 | 0.00 | 0.30 | 0.00 | 94 | 1024.9 |
| 20260504210535 | 53 | 225 | 6.1 | 7.8 | 0.00 | 0.31 | 0.00 | 95 | 1024.8 |
| 20260504205551 | 52 | 248 | 5.2 | 7.8 | 0.00 | 0.31 | 0.00 | 95 | 1024.7 |
| 20260504204551 | 52 | 248 | 4.3 | 6.1 | 0.00 | 0.36 | 0.00 | 95 | 1024.6 |
| 20260504203551 | 52 | 248 | 5.2 | 7.0 | 0.00 | 0.41 | 0.00 | 94 | 1024.5 |
| 20260504202551 | 52 | 254 | 6.1 | 7.8 | 0.00 | 0.41 | 0.00 | 94 | 1024.5 |
| 20260504201551 | 53 | 248 | 6.1 | 7.8 | 0.00 | 0.41 | 0.00 | 94 | 1024.4 |
| 20260504200611 | 53 | 248 | 7.0 | 7.8 | 0.00 | 0.41 | 0.00 | 94 | 1024.3 |
| 20260504195535 | 53 | 239 | 7.8 | 9.6 | 0.00 | 0.43 | 0.00 | 94 | 1024.2 |
| 20260504194551 | 53 | 248 | 4.3 | 7.8 | 0.00 | 0.43 | 0.00 | 95 | 1024.1 |
| 20260504193551 | 53 | 225 | 5.2 | 7.0 | 0.00 | 0.43 | 0.00 | 95 | 1024.1 |
| 20260504192643 | 53 | 228 | 6.1 | 7.8 | 0.00 | 0.43 | 0.00 | 95 | 1024.0 |
| 20260504191551 | 53 | 248 | 4.3 | 7.0 | 0.00 | 0.43 | 0.00 | 95 | 1024.0 |
| 20260504190525 | 51 | 248 | 4.3 | 7.0 | 0.00 | 0.43 | 0.00 | 95 | 1023.9 |
| 20260504185611 | 50 | 270 | 3.5 | 5.2 | 0.00 | 0.43 | 0.00 | 95 | 1023.9 |
| 20260504184535 | 50 | 270 | 4.3 | 6.1 | 0.00 | 0.43 | 0.00 | 94 | 1023.8 |
| 20260504183550 | 50 | 270 | 4.3 | 5.2 | 0.00 | 0.43 | 0.00 | 94 | 1023.6 |
| 20260504182551 | 50 | 270 | 6.1 | 7.8 | 0.00 | 0.43 | 0.00 | 94 | 1023.6 |
| 20260504181551 | 50 | 270 | 7.0 | 7.8 | 0.00 | 0.43 | 0.00 | 94 | 1023.6 |
| 20260504180550 | 51 | 270 | 3.5 | 7.0 | 0.00 | 0.43 | 0.00 | 93 | 1023.6 |
| 20260504175526 | 51 | 270 | 6.1 | 7.0 | 0.00 | 0.43 | 0.00 | 93 | 1023.5 |
| 20260504174611 | 53 | 267 | 6.1 | 7.8 | 0.00 | 0.43 | 0.00 | 92 | 1023.5 |
| 20260504173535 | 53 | 248 | 5.2 | 7.8 | 0.00 | 0.43 | 0.00 | 92 | 1023.5 |
| 20260504172611 | 53 | 248 | 6.1 | 7.8 | 0.00 | 0.43 | 0.00 | 92 | 1023.6 |
| 20260504171550 | 53 | 244 | 7.0 | 9.6 | 0.00 | 0.43 | 0.00 | 92 | 1023.6 |
| 20260504170550 | 53 | 225 | 7.0 | 7.8 | 0.00 | 0.43 | 0.00 | 92 | 1023.7 |
| 20260504150550 | 50 | 270 | 7.8 | 9.6 | 0.00 | 0.43 | 0.00 | 93 | 1023.6 |
| 20260504140616 | 52 | 270 | 4.3 | 7.0 | 0.00 | 0.43 | 0.43 | 92 | 1023.2 |
| 20260504130550 | 52 | 270 | 7.0 | 7.8 | 0.00 | 0.44 | 0.43 | 93 | 1023.1 |
| 20260504110551 | 55 | 256 | 9.6 | 13.9 | 0.00 | 0.44 | 0.43 | 89 | 1022.2 |
| 20260504100550 | 58 | 255 | 9.6 | 10.4 | 0.00 | 0.44 | 0.43 | 82 | 1021.3 |
| 20260504081536 | 60 | 250 | 8.7 | 9.6 | 0.00 | 0.66 | 0.43 | 78 | 1019.6 |
| 20260504080711 | 61 | 253 | 8.7 | 10.4 | 0.00 | 0.68 | 0.43 | 76 | 1019.5 |
| 20260504050546 | 66 | 227 | 12.2 | 20.0 | 0.00 | 0.77 | 0.43 | 65 | 1017.8 |
| 20260504045550 | 66 | 214 | 12.2 | 14.8 | 0.00 | 0.77 | 0.43 | 66 | 1017.7 |
| 20260504044536 | 66 | 250 | 13.9 | 15.6 | 0.00 | 0.77 | 0.43 | 64 | 1017.6 |
| 20260504043550 | 66 | 242 | 11.3 | 13.0 | 0.00 | 0.77 | 0.43 | 70 | 1017.5 |
| 20260504042610 | 67 | 223 | 13.0 | 16.5 | 0.00 | 0.77 | 0.43 | 68 | 1017.5 |
| 20260504041550 | 67 | 232 | 12.2 | 19.1 | 0.00 | 0.77 | 0.43 | 68 | 1017.4 |
| 20260504040550 | 66 | 240 | 13.9 | 20.9 | 0.00 | 0.77 | 0.43 | 70 | 1017.4 |
| 20260504035526 | 66 | 254 | 13.9 | 16.5 | 0.00 | 0.77 | 0.43 | 70 | 1017.5 |
| 20260504034550 | 66 | 244 | 13.9 | 16.5 | 0.00 | 0.77 | 0.43 | 72 | 1017.5 |
| 20260504033616 | 65 | 247 | 11.3 | 13.9 | 0.00 | 0.77 | 0.43 | 71 | 1017.5 |
| 20260504032610 | 66 | 226 | 11.3 | 14.8 | 0.00 | 0.77 | 0.43 | 68 | 1017.5 |
| 20260504031549 | 65 | 236 | 10.4 | 14.8 | 0.00 | 0.77 | 0.43 | 71 | 1017.6 |
| 20260504030610 | 65 | 235 | 10.4 | 13.0 | 0.00 | 0.77 | 0.43 | 73 | 1017.7 |
| 20260504025549 | 64 | 243 | 11.3 | 13.9 | 0.00 | 0.77 | 0.43 | 75 | 1017.7 |